[[{"header":{"parameterUnit":"m.s-1","parameterCategory":1,"la1":30.2991,"la2":30.254,"lo1":-89.0895,"lo2":-89.0444,"dy":0.0017,"dx":0.0017,"nx":28,"ny":28,"refTime":"2025-09-15T21:00:00:Z","depth":0,"parameterNumber":2,"parameterNumberName":"U-component_of_WINDS"},"data":[0,0,0,0,0,0,0,0,0,0,0,0,0,0,0,0,0,0,0,0,0,0,0,0,0,0,0,0,0,0,0,0,0,0,0,0,0,0,0,0,0,0,0,0,0,0,0,0,0,0,0,0,0,0,0,0,0,0,-0.6777,-0.6777,0,-0.6778,-0.6778,-0.6778,-0.6768,-0.6768,-0.6768,-0.6768,-0.6769,-0.677,-0.677,0,0,0,0,0,0,0,0,0,0,0,0,0,-0.6767,-0.6768,-0.6777,-0.6777,-0.6777,-0.6778,-0.6778,-0.6778,-0.6768,-0.6768,-0.6768,-0.6767,-0.6769,-0.6769,-0.677,0,0,0,0,0,0,0,0,0,0,0,0,0,-0.677,-0.6768,-0.6777,-0.6772,-0.6772,-0.6778,-0.6778,-0.6778,-0.6768,-0.6768,-0.6768,-0.6767,-0.6769,-0.6769,-0.677,-0.6781,0,0,-0.6771,-0.6771,0,0,0,0,0,0,0,0,-0.677,-0.6771,-0.6773,-0.6772,-0.6772,-0.6772,-0.6775,-0.6779,-0.6768,-0.677,-0.6767,-0.6767,-0.6771,-0.6771,-0.6772,-0.6781,-0.6781,-0.6771,-0.6772,-0.6772,-0.6772,0,0,0,0,0,0,0,-0.677,-0.6771,-0.6777,-0.6773,-0.6772,-0.677,-0.677,-0.6776,-0.6772,-0.677,-0.6769,-0.6769,-0.677,-0.6772,-0.6772,-0.6781,-0.6771,-0.6772,-0.6772,-0.6772,-0.6799,-0.68,0,0,0,0,0,0,-0.677,-0.677,-0.6777,-0.6777,-0.677,-0.6771,-0.6771,-0.6773,-0.6772,-0.6772,-0.6769,-0.6769,-0.6771,-0.6772,-0.6772,-0.6785,-0.6772,-0.6772,-0.6772,-0.6799,-0.68,-0.68,0,0,0,0,0,0,-0.677,-0.6771,-0.6777,-0.6774,-0.6774,-0.6771,-0.6774,-0.6773,-0.6774,-0.6772,-0.6772,-0.6771,-0.6771,-0.6771,-0.6779,-0.6785,-0.6772,-0.6773,-0.6798,-0.6799,-0.68,-0.6812,0,0,0,0,0,0,-0.677,-0.6771,-0.6775,-0.6774,-0.6774,-0.6783,-0.6774,-0.6773,-0.6775,-0.6774,-0.6774,-0.6773,-0.6771,-0.6778,-0.6779,-0.6786,-0.6773,-0.6798,-0.6799,-0.68,-0.6811,-0.6813,-0.6814,0,0,0,0,0,-0.677,-0.6778,-0.6775,-0.6776,-0.6779,-0.6784,-0.6784,-0.678,-0.6775,-0.6779,-0.6778,-0.6773,-0.6784,-0.6779,-0.678,-0.6787,-0.6797,-0.6798,-0.6799,-0.681,-0.6812,-0.6814,0,0,0,0,0,0,-0.678,-0.6778,-0.6774,-0.6782,-0.6783,-0.6782,-0.6787,-0.6783,-0.6785,-0.6784,-0.678,-0.678,-0.6788,-0.6788,-0.6782,-0.6798,-0.679,-0.6791,-0.6798,-0.68,-0.6802,-0.6802,-0.6773,0,0,0,0,0,-0.6783,-0.6786,-0.6785,-0.6792,-0.6793,-0.679,-0.6792,-0.6789,-0.679,-0.679,-0.6789,-0.6791,-0.6795,-0.6797,-0.68,-0.6811,-0.6811,-0.6816,-0.6818,-0.6819,-0.6821,-0.6827,-0.683,-0.6803,-0.6803,-0.6803,0,0,-0.6789,-0.6789,-0.6791,-0.6794,-0.6794,-0.6799,-0.679,-0.6795,-0.6799,-0.6791,-0.6798,-0.6798,-0.6799,-0.6808,-0.6812,-0.6808,-0.6828,-0.6821,-0.6822,-0.6822,-0.6828,-0.6831,-0.6833,-0.6804,-0.6804,-0.6804,0,0,-0.6804,-0.6803,-0.681,-0.681,-0.6811,-0.6809,-0.6811,-0.681,-0.681,-0.6817,-0.6812,-0.6816,-0.6822,-0.6824,-0.6825,-0.6841,-0.6837,-0.6842,-0.6852,-0.6859,-0.6861,-0.6863,-0.6869,-0.6872,-0.6843,-0.6844,-0.6844,0,-0.6812,-0.6818,-0.6814,-0.6819,-0.6821,-0.6814,-0.6821,-0.6822,-0.6824,-0.6826,-0.6821,-0.683,-0.683,-0.684,-0.6844,-0.6845,-0.6848,-0.6842,-0.6861,-0.6862,-0.6864,-0.6871,-0.6873,-0.6844,-0.6844,-0.6844,-0.6844,0,-0.6829,-0.6833,-0.6838,-0.6841,-0.6843,-0.6849,-0.6846,-0.6849,-0.6846,-0.6845,-0.6853,-0.6853,-0.6857,-0.6859,-0.6856,-0.6869,-0.6866,-0.6861,-0.6854,-0.6867,-0.6873,-0.6876,-0.6845,-0.6845,-0.6845,-0.6845,0,0,-0.6849,-0.6849,-0.6851,-0.6853,-0.6853,-0.6857,-0.6863,-0.6867,-0.687,-0.6872,-0.6878,-0.6884,-0.6879,-0.6881,-0.6878,-0.6884,-0.6898,-0.6878,-0.6878,-0.6883,-0.6913,-0.6918,-0.692,-0.6895,-0.6895,-0.6895,-0.6913,0,-0.6864,-0.6875,-0.6871,-0.6883,-0.6887,-0.6881,-0.6887,-0.6888,-0.6887,-0.6892,-0.6891,-0.6896,-0.6889,-0.689,-0.6895,-0.6895,-0.6904,-0.6893,-0.6901,-0.6901,-0.6902,-0.6923,-0.6928,-0.6945,-0.6915,-0.6916,-0.6916,0,-0.6883,-0.6886,-0.6897,-0.6898,-0.69,-0.6905,-0.6909,-0.6912,-0.6914,-0.6913,-0.6916,-0.6912,-0.6919,-0.6911,-0.6921,-0.6914,-0.6917,-0.6917,-0.6918,-0.6919,-0.691,-0.6926,-0.695,-0.6953,-0.692,-0.6919,-0.6919,0,-0.6898,-0.6905,-0.6913,-0.6914,-0.6915,-0.6919,-0.6919,-0.692,-0.6923,-0.6926,-0.6928,-0.6932,-0.6935,-0.6938,-0.6936,-0.693,-0.6947,-0.6938,-0.6947,-0.6947,-0.6952,-0.6951,-0.6977,-0.6952,-0.6952,-0.6952,-0.6952,0,-0.6916,-0.6924,-0.692,-0.6925,-0.6934,-0.693,-0.6939,-0.6938,-0.694,-0.6945,-0.694,-0.6945,-0.6942,-0.6947,-0.6945,-0.6954,-0.6955,-0.6955,-0.6955,-0.6956,-0.6957,-0.6959,-0.6958,-0.6952,-0.6952,-0.6952,-0.6952,0,-0.6935,-0.6932,-0.6941,-0.6941,-0.6941,-0.6948,-0.6948,-0.6953,-0.6952,-0.6959,-0.6961,-0.6959,-0.6965,-0.6963,-0.6969,-0.6968,-0.6981,-0.6978,-0.698,-0.698,-0.6989,-0.6989,-0.7018,-0.7022,-0.6993,-0.6994,-0.6994,0,-0.6947,-0.6952,-0.6953,-0.6957,-0.6957,-0.6963,-0.6965,-0.6962,-0.6965,-0.6968,-0.6973,-0.6979,-0.6983,-0.6993,-0.6993,-0.6998,-0.6996,-0.7006,-0.6997,-0.6998,-0.6997,-0.6998,-0.6999,-0.7008,-0.7008,-0.7009,-0.7009,0,-0.6968,-0.6967,-0.6971,-0.6975,-0.6979,-0.6982,-0.6985,-0.6988,-0.6984,-0.6989,-0.6995,-0.6998,-0.7005,-0.7011,-0.7015,-0.7016,-0.7013,-0.7012,-0.7014,-0.7016,-0.7017,-0.7018,-0.6986,-0.7011,-0.7011,-0.7011,-0.7011,-0.701,-0.6985,-0.699,-0.6992,-0.6997,-0.6999,-0.7001,-0.7006,-0.7006,-0.7011,-0.7016,-0.7014,-0.7021,-0.7023,-0.7029,-0.7031,-0.7037,-0.7034,-0.7037,-0.7038,-0.7039,-0.7041,-0.7016,-0.7038,-0.7038,-0.7038,-0.7038,-0.7038,0,-0.7007,-0.7008,-0.7013,-0.7017,-0.7021,-0.7017,-0.7019,-0.7024,-0.703,-0.7032,-0.7037,-0.7044,-0.705,-0.705,-0.7056,-0.7061,-0.706,-0.7063,-0.7063,-0.7063,-0.7043,-0.7041,-0.7064,-0.7064,-0.7064,-0.7064,-0.7064,-0.7064,-0.7019,-0.7028,-0.7028,-0.7038,-0.7038,-0.7046,-0.7048,-0.7051,-0.7053,-0.7061,-0.7066,-0.7066,-0.7068,-0.7074,-0.7079,-0.7079,-0.7082,-0.7086,-0.7086,-0.7067,-0.7065,-0.7062,-0.706,-0.7087,-0.7087,-0.7106,-0.7106,-0.7106]},{"header":{"parameterUnit":"m.s-1","parameterCategory":1,"la1":30.2991,"la2":30.254,"lo1":-89.0895,"lo2":-89.0444,"dy":0.0017,"dx":0.0017,"nx":28,"ny":28,"refTime":"2025-09-15T21:00:00:Z","depth":0,"parameterNumber":3,"parameterNumberName":"V-component_of_WINDS"},"data":[0,0,0,0,0,0,0,0,0,0,0,0,0,0,0,0,0,0,0,0,0,0,0,0,0,0,0,0,0,0,0,0,0,0,0,0,0,0,0,0,0,0,0,0,0,0,0,0,0,0,0,0,0,0,0,0,0,0,4.4404,4.4404,0,4.4383,4.4383,4.4383,4.4318,4.4316,4.4315,4.4314,4.4293,4.4294,4.4295,0,0,0,0,0,0,0,0,0,0,0,0,0,4.4389,4.4389,4.4404,4.4404,4.4403,4.4383,4.4383,4.4383,4.4318,4.4316,4.4315,4.4313,4.4293,4.4294,4.4295,0,0,0,0,0,0,0,0,0,0,0,0,0,4.4384,4.4389,4.4404,4.4369,4.4365,4.4383,4.4383,4.4383,4.4318,4.4316,4.4314,4.4312,4.4293,4.4294,4.4295,4.4346,0,0,4.4299,4.4299,0,0,0,0,0,0,0,0,4.4385,4.4385,4.4374,4.4371,4.4367,4.4351,4.437,4.437,4.4319,4.4336,4.4314,4.4311,4.4314,4.4314,4.4315,4.4345,4.4344,4.4299,4.43,4.43,4.4301,0,0,0,0,0,0,0,4.4385,4.4386,4.4396,4.4374,4.437,4.4354,4.4351,4.437,4.4338,4.4335,4.433,4.4328,4.4312,4.4314,4.4314,4.4344,4.4299,4.43,4.4301,4.4301,4.4413,4.4416,0,0,0,0,0,0,4.439,4.4386,4.4396,4.4395,4.4371,4.4356,4.4353,4.4358,4.4337,4.4332,4.433,4.4325,4.4313,4.4312,4.4313,4.4369,4.43,4.4301,4.4302,4.4411,4.4414,4.4416,0,0,0,0,0,0,4.439,4.4392,4.4397,4.4389,4.4389,4.4359,4.4365,4.4359,4.436,4.4334,4.4328,4.4337,4.4311,4.4311,4.4338,4.4367,4.4302,4.4303,4.4409,4.4412,4.4415,4.4483,0,0,0,0,0,0,4.439,4.4392,4.4411,4.439,4.439,4.4422,4.4367,4.436,4.4362,4.4356,4.4339,4.4334,4.4309,4.4336,4.4339,4.4368,4.4304,4.4406,4.441,4.4414,4.4478,4.4488,4.4497,0,0,0,0,0,4.439,4.4431,4.4412,4.4414,4.4412,4.4424,4.4424,4.4394,4.4365,4.4384,4.4367,4.4335,4.4364,4.434,4.4342,4.4372,4.4404,4.4409,4.4414,4.4474,4.4486,4.4497,0,0,0,0,0,0,4.4457,4.4428,4.4406,4.4442,4.4436,4.4413,4.4436,4.4408,4.441,4.4404,4.4367,4.4364,4.4396,4.4387,4.436,4.4419,4.4379,4.4385,4.4423,4.4435,4.4445,4.4445,4.4305,0,0,0,0,0,4.4476,4.4488,4.4462,4.4497,4.4494,4.4466,4.447,4.4448,4.444,4.4437,4.4422,4.4416,4.4423,4.4429,4.4435,4.4477,4.4472,4.4499,4.4509,4.4517,4.4522,4.4542,4.4553,4.4433,4.4433,4.4433,0,0,4.4515,4.4501,4.451,4.451,4.4502,4.4515,4.4464,4.448,4.4489,4.4439,4.4463,4.4452,4.4443,4.4477,4.4492,4.4471,4.4554,4.4523,4.453,4.453,4.4548,4.456,4.457,4.4436,4.4436,4.4435,0,0,4.4592,4.4584,4.461,4.4604,4.4593,4.4574,4.458,4.4562,4.4552,4.4575,4.4538,4.4549,4.4563,4.4558,4.4557,4.4633,4.4603,4.4636,4.4685,4.4706,4.4715,4.4723,4.4749,4.4758,4.4641,4.4642,4.4642,0,4.4642,4.466,4.4628,4.4646,4.4646,4.4602,4.4628,4.4624,4.4616,4.4617,4.4594,4.461,4.4601,4.4633,4.4651,4.4653,4.4659,4.4637,4.4716,4.4724,4.4731,4.4755,4.4765,4.4646,4.4645,4.4645,4.4644,0,4.4721,4.4734,4.4757,4.475,4.4753,4.4776,4.4747,4.4754,4.4732,4.4715,4.4739,4.4727,4.4729,4.4735,4.4714,4.4764,4.4751,4.4723,4.4681,4.4747,4.4769,4.4778,4.4651,4.465,4.4649,4.4648,0,0,4.4838,4.4813,4.4822,4.4817,4.4802,4.4812,4.4833,4.4834,4.484,4.4837,4.4852,4.4866,4.484,4.4839,4.4817,4.4835,4.4894,4.4804,4.4803,4.482,4.4946,4.4966,4.4977,4.4875,4.4877,4.4878,4.4946,0,4.491,4.4943,4.4915,4.4953,4.4964,4.4922,4.494,4.4933,4.4918,4.4926,4.491,4.4919,4.4885,4.4884,4.49,4.4883,4.4918,4.4878,4.4888,4.4889,4.4889,4.4989,4.5009,4.5074,4.4955,4.4956,4.4957,0,4.4998,4.4997,4.5036,4.5018,4.5021,4.5038,4.5036,4.5044,4.5036,4.5024,4.5023,4.4996,4.5015,4.4976,4.5001,4.4974,4.4977,4.497,4.4972,4.4969,4.4926,4.4987,4.5095,4.5104,4.4971,4.497,4.4969,0,4.5077,4.5086,4.511,4.5108,4.5088,4.51,4.5092,4.5081,4.5084,4.5083,4.5084,4.5087,4.5087,4.5089,4.5064,4.5038,4.5092,4.5051,4.5081,4.5082,4.5093,4.5092,4.52,4.5099,4.5099,4.5098,4.5098,0,4.5158,4.5183,4.5145,4.516,4.5186,4.5154,4.5182,4.517,4.5161,4.5172,4.5138,4.5149,4.5115,4.5124,4.5104,4.5127,4.5128,4.5118,4.5112,4.512,4.5121,4.512,4.5114,4.5101,4.51,4.51,4.5099,0,4.525,4.5225,4.5249,4.5228,4.5223,4.5244,4.5226,4.5238,4.5222,4.5237,4.5239,4.5213,4.5221,4.5196,4.52,4.5187,4.522,4.5208,4.5222,4.5218,4.5249,4.5246,4.5358,4.537,4.5264,4.5265,4.5266,0,4.5302,4.532,4.5301,4.5306,4.53,4.5309,4.5311,4.5281,4.5284,4.5276,4.5289,4.5294,4.5296,4.5311,4.5293,4.5296,4.5282,4.5321,4.5282,4.5289,4.528,4.5278,4.5279,4.5328,4.533,4.5331,4.5332,0,4.5397,4.5384,4.5388,4.5388,4.5391,4.539,4.5386,4.5393,4.536,4.5366,4.5373,4.5375,4.5379,4.5384,4.5383,4.5375,4.5348,4.5345,4.5351,4.5358,4.5365,4.536,4.5242,4.5342,4.5341,4.534,4.5339,4.5339,4.5469,4.5482,4.5471,4.5476,4.5471,4.5468,4.5478,4.5463,4.5468,4.5468,4.5451,4.5462,4.5452,4.5448,4.5443,4.5451,4.5433,4.5444,4.5446,4.5448,4.5453,4.5366,4.5451,4.5451,4.5451,4.5451,4.545,0,4.556,4.5551,4.5556,4.5552,4.5556,4.553,4.5525,4.553,4.554,4.5534,4.5536,4.5544,4.5549,4.5532,4.5534,4.5544,4.5531,4.5545,4.5543,4.5541,4.547,4.5462,4.5555,4.5555,4.5555,4.5555,4.5555,4.5555,4.5608,4.5629,4.5615,4.5632,4.5623,4.5632,4.5631,4.5629,4.5623,4.5634,4.5637,4.5626,4.5615,4.5616,4.5619,4.5614,4.5615,4.5633,4.5624,4.5557,4.5546,4.5537,4.5529,4.5635,4.5635,4.5694,4.5694,4.5695]}]]